Weather History for KABR - October, 2011

Change the Weather History Date:

Friday, October 28, 2011

  Actual Average Record
Temperature  
Mean Temperature 38 °F 40 °F  
Max Temperature 54 °F 51 °F 82 °F (1937)
Min Temperature 22 °F 28 °F -6 °F (1919)
Degree Days  
Heating Degree Days 27 25  
Month to date heating degree days 398 537  
Since 1 July heating degree days 602 811  
Cooling Degree Days 0 0  
Month to date cooling degree days 31 0  
Year to date cooling degree days 729 523  
Moisture  
Dew Point 24 °F    
Average Humidity 55    
Maximum Humidity 82    
Minimum Humidity 28    
Precipitation  
Precipitation 0.00 in 0.05 in 1.02 in (1991)
Month to date precipitation 0.80 1.86  
Year to date precipitation 22.95 20.34  
Snow  
Snow 0.00 in - - ()
Month to date snowfall 0.0  
Since 1 July snowfall 0.0  
Snow Depth 0.00 in    
Sea Level Pressure  
Sea Level Pressure 30.13 in    
Wind  
Wind Speed 10 mph (WNW)    
Max Wind Speed 23 mph    
Max Gust Speed 32 mph    
Visibility 10 miles    
Events      
T = Trace of Precipitation, MM = Missing Value Source: NWS Daily Summary

Daily Weather History Graph

Daily Weather History Graph

Search for Another Location

Airport or City:

Trip Planner

Search our weather history database for the weather conditions in past years. The results will help you decide how hot, cold, wet, or windy it might be!

Date:

Astronomy

Oct. 28, 2011 Rise Set
Actual Time 8:07 AM CDT 6:27 PM CDT
Civil Twilight 7:36 AM CDT 6:57 PM CDT
Nautical Twilight 7:01 AM CDT 7:32 PM CDT
Astronomical Twilight 6:27 AM CDT 8:06 PM CDT
Moon 10:33 AM CDT (10/28) 7:42 PM CDT (10/28)
Length of Visible Light 11h 21m
Length of Day
10h 19m
Waxing Crescent, 5% of the Moon is Illuminated
Oct 28
Waxing Crescent
Nov 2
First Quarter
Nov 10
Full
Nov 18
Last Quarter
Nov 25
New

Hourly Weather History & Observations

Time (CDT) Temp. Windchill Dew Point Humidity Pressure Visibility Wind Dir Wind Speed Gust Speed Precip Events Conditions
12:53 AM 36.0 °F 30.3 °F 28.9 °F 76% 30.06 in 10.0 mi NW 6.9 mph - N/A   Partly Cloudy
1:53 AM 37.9 °F 30.5 °F 30.9 °F 76% 30.07 in 10.0 mi NW 11.5 mph - N/A   Partly Cloudy
2:53 AM 37.4 °F 30.8 °F 30.2 °F 75% 30.06 in 10.0 mi WNW 9.2 mph - N/A   Clear
3:53 AM 34.0 °F 26.6 °F 28.0 °F 79% 30.10 in 10.0 mi WNW 9.2 mph - N/A   Clear
4:53 AM 33.1 °F 24.9 °F 27.0 °F 78% 30.11 in 10.0 mi WNW 10.4 mph - N/A   Clear
5:53 AM 32.0 °F 24.8 °F 26.1 °F 79% 30.12 in 10.0 mi WNW 8.1 mph - N/A   Clear
6:53 AM 32.0 °F 23.6 °F 25.0 °F 75% 30.14 in 10.0 mi WNW 10.4 mph - N/A   Clear
7:53 AM 32.0 °F 24.2 °F 25.0 °F 75% 30.15 in 10.0 mi WNW 9.2 mph - N/A   Clear
8:53 AM 33.1 °F 25.5 °F 25.0 °F 72% 30.16 in 10.0 mi West 9.2 mph - N/A   Clear
9:53 AM 39.0 °F 31.0 °F 26.1 °F 60% 30.16 in 10.0 mi West 13.8 mph - N/A   Clear
10:53 AM 43.0 °F 34.8 °F 27.0 °F 53% 30.16 in 10.0 mi WNW 18.4 mph - N/A   Clear
11:53 AM 46.9 °F - 27.0 °F 46% 30.17 in 10.0 mi NW 13.8 mph - N/A   Clear
12:53 PM 50.0 °F - 26.1 °F 39% 30.16 in 10.0 mi NW 11.5 mph - N/A   Clear
1:53 PM 52.0 °F - 25.0 °F 35% 30.14 in 10.0 mi NW 13.8 mph - N/A   Clear
2:53 PM 53.1 °F - 21.9 °F 30% 30.12 in 10.0 mi NW 16.1 mph 25.3 mph N/A   Clear
3:53 PM 53.1 °F - 21.9 °F 30% 30.12 in 10.0 mi NW 20.7 mph 32.2 mph N/A   Clear
4:53 PM 52.0 °F - 19.0 °F 27% 30.12 in 10.0 mi NW 18.4 mph 25.3 mph N/A   Clear
5:53 PM 48.0 °F - 19.9 °F 33% 30.13 in 10.0 mi WNW 10.4 mph 21.9 mph N/A   Clear
6:53 PM 41.0 °F 36.4 °F 19.9 °F 43% 30.14 in 10.0 mi WNW 6.9 mph - N/A   Clear
7:53 PM 36.0 °F 31.1 °F 19.9 °F 52% 30.14 in 10.0 mi WNW 5.8 mph - N/A   Clear
8:53 PM 28.0 °F 22.8 °F 19.0 °F 69% 30.13 in 10.0 mi West 4.6 mph - N/A   Clear
9:53 PM 27.0 °F 23.0 °F 19.9 °F 75% 30.12 in 10.0 mi SW 3.5 mph - N/A   Clear
10:53 PM 25.0 °F - 19.9 °F 81% 30.12 in 10.0 mi Calm Calm - N/A   Clear
11:53 PM 27.0 °F - 21.0 °F 78% 30.10 in 10.0 mi Calm Calm - N/A   Clear